• In Russia
  • List of Countries
  • For 7 days
  • Water Temperature
  • Satellite Maps
  • Weather Map
  • Weather Widgets
  • user-avatar
    Login

    Hourly Weather Samarqand

    Today, 22 February, Friday

    Time Temperature Precipitation Wind Pressure Humidity
    00:00 -1°C° 0 mm 2 mps 705 mmHg 64%
    01:00 -1°C° 0 mm 2 mps 705 mmHg 62%
    02:00 -1°C° 0 mm 2 mps 704 mmHg 58%
    03:00 -1°C° 0 mm 2 mps 704 mmHg 54%
    04:00 -2°C° 0 mm 2 mps 704 mmHg 54%
    05:00 -2°C° 0 mm 2 mps 704 mmHg 51%
    06:00 -1°C° 0 mm 2 mps 704 mmHg 49%
    07:00 -1°C° 0 mm 2 mps 704 mmHg 46%
    08:00 +2°C° 0 mm 2 mps 703 mmHg 42%
    09:00 +4°C° 0 mm 2 mps 703 mmHg 38%
    10:00 +8°C° 0 mm 1 mps 703 mmHg 34%
    11:00 +9°C° 0 mm 1 mps 703 mmHg 33%
    12:00 +9°C° 0 mm 1 mps 703 mmHg 31%
    13:00 +10°C° 0 mm 1 mps 703 mmHg 30%
    14:00 +10°C° 0 mm 1 mps 703 mmHg 32%
    15:00 +9°C° 0 mm 2 mps 702 mmHg 34%
    16:00 +9°C° 0 mm 2 mps 702 mmHg 36%
    17:00 +7°C° 0 mm 2 mps 702 mmHg 39%
    18:00 +6°C° 0 mm 2 mps 703 mmHg 43%
    19:00 +5°C° 0 mm 2 mps 703 mmHg 46%
    20:00 +4°C° 0 mm 2 mps 703 mmHg 46%
    21:00 +4°C° 0 mm 2 mps 703 mmHg 46%
    22:00 +4°C° 0 mm 2 mps 703 mmHg 46%
    23:00 +4°C° 0 mm 2 mps 703 mmHg 45%

    Tomorrow, 23 February, Saturday

    Time Temperature Precipitation Wind Pressure Humidity
    00:00 +4°C° 0 mm 2 mps 703 mmHg 44%
    01:00 +4°C° 0 mm 2 mps 703 mmHg 42%
    02:00 +4°C° 0 mm 2 mps 703 mmHg 40%
    03:00 +4°C° 0 mm 2 mps 702 mmHg 38%
    04:00 +3°C° 0 mm 2 mps 702 mmHg 36%
    05:00 +4°C° 0 mm 2 mps 703 mmHg 34%
    06:00 +4°C° 0 mm 2 mps 703 mmHg 33%
    07:00 +4°C° 0 mm 2 mps 703 mmHg 31%
    08:00 +6°C° 0 mm 2 mps 703 mmHg 29%
    09:00 +9°C° 0 mm 1 mps 703 mmHg 27%
    10:00 +11°C° 0 mm 1 mps 703 mmHg 25%
    11:00 +12°C° 0 mm 1 mps 703 mmHg 24%
    12:00 +13°C° 0 mm 1 mps 703 mmHg 23%
    13:00 +14°C° 0 mm 1 mps 703 mmHg 22%
    14:00 +14°C° 0 mm 1 mps 702 mmHg 24%
    15:00 +13°C° 0 mm 2 mps 702 mmHg 25%
    16:00 +13°C° 0 mm 2 mps 702 mmHg 27%
    17:00 +12°C° 0 mm 1 mps 702 mmHg 31%
    18:00 +10°C° 0 mm 1 mps 702 mmHg 34%
    19:00 +9°C° 0 mm 1 mps 702 mmHg 38%
    20:00 +8°C° 0 mm 1 mps 702 mmHg 38%
    21:00 +8°C° 0 mm 1 mps 702 mmHg 38%
    22:00 +8°C° 0 mm 1 mps 702 mmHg 39%
    23:00 +8°C° 0 mm 1 mps 702 mmHg 40%

    Day after tomorrow, 24 February, Sunday

    Time Temperature Precipitation Wind Pressure Humidity
    00:00 +7°C° 0 mm 1 mps 702 mmHg 41%
    01:00 +7°C° 0 mm 1 mps 702 mmHg 41%
    02:00 +7°C° 0 mm 1 mps 701 mmHg 43%
    03:00 +7°C° 0 mm 1 mps 701 mmHg 45%
    04:00 +7°C° 0 mm 1 mps 701 mmHg 46%
    05:00 +7°C° 0 mm 1 mps 701 mmHg 48%
    06:00 +7°C° 0 mm 1 mps 701 mmHg 49%
    07:00 +7°C° 0 mm 1 mps 702 mmHg 50%
    08:00 +8°C° 0 mm 1 mps 702 mmHg 45%
    09:00 +10°C° 0 mm 1 mps 702 mmHg 40%
    10:00 +11°C° 0 mm 1 mps 702 mmHg 35%
    11:00 +12°C° 0 mm 2 mps 702 mmHg 34%
    12:00 +12°C° 0 mm 2 mps 702 mmHg 33%
    13:00 +12°C° 0 mm 3 mps 702 mmHg 31%
    14:00 +12°C° 0 mm 3 mps 701 mmHg 32%
    15:00 +12°C° 0 mm 3 mps 701 mmHg 33%
    16:00 +11°C° 0 mm 3 mps 701 mmHg 34%
    17:00 +10°C° 0 mm 2 mps 701 mmHg 38%
    18:00 +10°C° 0 mm 1 mps 702 mmHg 41%
    19:00 +9°C° 0 mm 1 mps 702 mmHg 44%
    20:00 +8°C° 0 mm 1 mps 702 mmHg 45%
    21:00 +8°C° 0 mm 1 mps 702 mmHg 46%
    22:00 +7°C° 0 mm 1 mps 702 mmHg 47%
    23:00 +7°C° 0 mm 1 mps 702 mmHg 48%

    25 February, Monday

    Time Temperature Precipitation Wind Pressure Humidity
    00:00 +6°C° 0 mm 1 mps 702 mmHg 49%
    01:00 +5°C° 0 mm 0 mps 702 mmHg 49%
    02:00 +5°C° 0 mm 0 mps 701 mmHg 50%
    03:00 +4°C° 0 mm 0 mps 701 mmHg 50%
    04:00 +4°C° 0 mm 0 mps 701 mmHg 50%
    05:00 +5°C° 0 mm 1 mps 701 mmHg 50%
    06:00 +5°C° 0 mm 1 mps 701 mmHg 50%
    07:00 +5°C° 0 mm 1 mps 702 mmHg 50%
    08:00 +7°C° 0 mm 1 mps 702 mmHg 44%
    09:00 +8°C° 0 mm 1 mps 702 mmHg 39%
    10:00 +9°C° 0 mm 0 mps 702 mmHg 34%
    11:00 +11°C° 0 mm 1 mps 701 mmHg 32%
    12:00 +11°C° 0 mm 1 mps 701 mmHg 30%
    13:00 +12°C° 0 mm 2 mps 700 mmHg 29%
    14:00 +12°C° 0 mm 2 mps 700 mmHg 29%
    15:00 +12°C° 0 mm 2 mps 700 mmHg 29%
    16:00 +12°C° 0 mm 2 mps 700 mmHg 30%
    17:00 +11°C° 0 mm 1 mps 700 mmHg 33%
    18:00 +10°C° 0 mm 1 mps 700 mmHg 36%
    19:00 +9°C° 0 mm 1 mps 700 mmHg 40%
    20:00 +8°C° 0 mm 1 mps 700 mmHg 41%
    21:00 +8°C° 0 mm 1 mps 700 mmHg 43%
    22:00 +7°C° 0 mm 1 mps 700 mmHg 45%
    23:00 +7°C° 0 mm 1 mps 699 mmHg 46%

    26 February, Tuesday

    Time Temperature Precipitation Wind Pressure Humidity
    00:00 +6°C° 0 mm 1 mps 699 mmHg 48%
    01:00 +6°C° 0 mm 1 mps 699 mmHg 49%
    02:00 +5°C° 0 mm 0 mps 699 mmHg 50%
    03:00 +4°C° 0 mm 0 mps 698 mmHg 50%
    04:00 +4°C° 0 mm 0 mps 698 mmHg 51%
    05:00 +4°C° 0 mm 0 mps 698 mmHg 50%
    06:00 +4°C° 0 mm 0 mps 698 mmHg 49%
    07:00 +4°C° 0 mm 0 mps 699 mmHg 49%
    08:00 +7°C° 0 mm 1 mps 699 mmHg 43%
    09:00 +9°C° 0 mm 1 mps 699 mmHg 37%
    10:00 +10°C° 0 mm 1 mps 699 mmHg 31%
    11:00 +10°C° 0 mm 2 mps 699 mmHg 29%
    12:00 +11°C° 0 mm 3 mps 698 mmHg 28%
    13:00 +12°C° 0 mm 3 mps 698 mmHg 27%
    14:00 +11°C° 0 mm 3 mps 698 mmHg 28%
    15:00 +11°C° 0 mm 3 mps 697 mmHg 30%
    16:00 +11°C° 0 mm 3 mps 697 mmHg 31%
    17:00 +10°C° 0 mm 3 mps 697 mmHg 36%
    18:00 +9°C° 0 mm 2 mps 697 mmHg 40%
    19:00 +9°C° 0 mm 1 mps 697 mmHg 44%
    20:00 +9°C° 0 mm 1 mps 697 mmHg 45%
    21:00 +9°C° 0 mm 1 mps 697 mmHg 46%
    22:00 +8°C° 0 mm 1 mps 696 mmHg 47%
    23:00 +8°C° 0 mm 1 mps 696 mmHg 47%

    27 February, Wednesday

    Time Temperature Precipitation Wind Pressure Humidity
    00:00 +7°C° 0 mm 1 mps 696 mmHg 47%
    01:00 +7°C° 0 mm 1 mps 695 mmHg 47%
    02:00 +7°C° 0 mm 1 mps 695 mmHg 47%
    03:00 +7°C° 0 mm 1 mps 694 mmHg 46%
    04:00 +5°C° 0 mm 2 mps 694 mmHg 46%
    05:00 +5°C° 0 mm 2 mps 694 mmHg 45%
    06:00 +5°C° 0 mm 2 mps 694 mmHg 44%
    07:00 +5°C° 0 mm 2 mps 694 mmHg 43%
    08:00 +7°C° 0 mm 2 mps 694 mmHg 37%
    09:00 +9°C° 0 mm 2 mps 694 mmHg 32%
    10:00 +12°C° 0 mm 2 mps 694 mmHg 26%
    11:00 +13°C° 0 mm 2 mps 693 mmHg 23%
    12:00 +14°C° 0 mm 2 mps 692 mmHg 21%
    13:00 +15°C° 0 mm 2 mps 692 mmHg 19%
    14:00 +15°C° 0 mm 2 mps 691 mmHg 20%
    15:00 +14°C° 0 mm 3 mps 691 mmHg 21%
    16:00 +14°C° 0 mm 3 mps 691 mmHg 22%
    17:00 +13°C° 0 mm 3 mps 690 mmHg 26%
    18:00 +11°C° 0 mm 3 mps 690 mmHg 30%
    19:00 +10°C° 0 mm 3 mps 690 mmHg 35%
    20:00 +10°C° 0 mm 3 mps 689 mmHg 36%
    21:00 +10°C° 0 mm 3 mps 689 mmHg 37%
    22:00 +10°C° 0 mm 3 mps 689 mmHg 38%
    23:00 +9°C° 0.1 mm 3 mps 688 mmHg 40%
    Show more